| time (UTC) | temp F | wind direction | speed MPH | gust MPH | rain 1hr in | rain 24hr in | rain mn in | humidity % | barometer mb |
| 20260906001531 | 63 | 195 | 3.0 | 9.0 | 0.00 | 0.01 | 0.00 | 81 | 1018.2 |
| 20260906000031 | 62 | 189 | 2.0 | 7.0 | 0.00 | 0.01 | 0.00 | 80 | 1018.2 |
| 20260905233031 | 63 | 177 | 3.0 | 6.0 | 0.00 | 0.01 | 0.00 | 74 | 1018.0 |
| 20260905231529 | 65 | 175 | 1.0 | 7.0 | 0.00 | 0.01 | 0.00 | 71 | 1017.9 |
| 20260905223031 | 67 | 286 | 1.0 | 4.0 | 0.00 | 0.01 | 0.00 | 67 | 1017.7 |
| 20260905221645 | 68 | 346 | 0.0 | 4.0 | 0.00 | 0.01 | 0.00 | 61 | 1017.8 |
| 20260905220032 | 68 | 62 | 1.0 | 4.0 | 0.00 | 0.01 | 0.00 | 60 | 1017.8 |
| 20260905214532 | 68 | 23 | 1.0 | 4.0 | 0.00 | 0.01 | 0.00 | 61 | 1017.9 |
| 20260905213033 | 68 | 185 | 0.0 | 3.0 | 0.00 | 0.01 | 0.00 | 63 | 1018.0 |
| 20260905211646 | 68 | 183 | 0.0 | 4.0 | 0.00 | 0.01 | 0.00 | 63 | 1018.2 |
| 20260905204528 | 66 | 183 | 2.0 | 4.0 | 0.00 | 0.01 | 0.00 | 64 | 1018.3 |
| 20260905203031 | 67 | 192 | 2.0 | 4.0 | 0.00 | 0.01 | 0.00 | 64 | 1018.4 |
| 20260905201646 | 67 | 183 | 0.0 | 5.0 | 0.00 | 0.01 | 0.00 | 65 | 1018.4 |
| 20260905200136 | 65 | 347 | 0.0 | 3.0 | 0.00 | 0.01 | 0.00 | 67 | 1018.6 |
| 20260905194532 | 65 | 334 | 0.0 | 3.0 | 0.00 | 0.01 | 0.00 | 68 | 1018.7 |
| 20260905190029 | 63 | 5 | 1.0 | 6.0 | 0.00 | 0.01 | 0.00 | 71 | 1019.2 |
| 20260905184531 | 63 | 27 | 2.0 | 6.0 | 0.00 | 0.01 | 0.00 | 75 | 1019.5 |
| 20260905180032 | 58 | 149 | 0.0 | 2.0 | 0.00 | 0.01 | 0.00 | 88 | 1020.0 |
| 20260905174530 | 57 | 90 | 0.0 | 2.0 | 0.00 | 0.01 | 0.00 | 90 | 1019.9 |
| 20260905171530 | 56 | 157 | 0.0 | 2.0 | 0.00 | 0.01 | 0.00 | 93 | 1019.9 |
| 20260905170106 | 56 | 157 | 0.0 | 0.0 | 0.00 | 0.01 | 0.00 | 95 | 1019.9 |
| 20260905164530 | 56 | 157 | 0.0 | 2.0 | 0.00 | 0.01 | 0.00 | 96 | 1019.9 |
| 20260905163029 | 56 | 157 | 0.0 | 1.0 | 0.00 | 0.01 | 0.00 | 97 | 1019.8 |
| 20260905161605 | 55 | 153 | 0.0 | 2.0 | 0.00 | 0.01 | 0.00 | 97 | 1019.8 |
| 20260905160030 | 55 | 156 | 0.0 | 2.0 | 0.00 | 0.01 | 0.00 | 97 | 1019.8 |
| 20260905153031 | 54 | 135 | 0.0 | 0.0 | 0.00 | 0.01 | 0.00 | 98 | 1019.8 |
| 20260905151530 | 53 | 135 | 0.0 | 0.0 | 0.00 | 0.01 | 0.00 | 97 | 1019.8 |
| 20260905150031 | 53 | 124 | 0.0 | 3.0 | 0.00 | 0.01 | 0.00 | 97 | 1019.7 |
| 20260905144530 | 52 | 360 | 0.0 | 0.0 | 0.00 | 0.01 | 0.00 | 97 | 1019.6 |
| 20260905143030 | 52 | 360 | 0.0 | 0.0 | 0.00 | 0.01 | 0.00 | 97 | 1019.6 |
| 20260905141532 | 52 | 26 | 0.0 | 1.0 | 0.00 | 0.01 | 0.00 | 97 | 1019.5 |
| 20260905140030 | 52 | 177 | 1.0 | 5.0 | 0.00 | 0.01 | 0.00 | 97 | 1019.3 |
| 20260905134645 | 51 | 180 | 3.0 | 6.0 | 0.00 | 0.01 | 0.00 | 97 | 1019.1 |
| 20260905133032 | 51 | 180 | 2.0 | 6.0 | 0.00 | 0.02 | 0.00 | 97 | 1019.0 |
| 20260905130030 | 52 | 180 | 0.0 | 0.0 | 0.00 | 0.02 | 0.00 | 97 | 1018.9 |
| 20260905124532 | 52 | 180 | 0.0 | 0.0 | 0.00 | 0.02 | 0.00 | 97 | 1018.9 |
| 20260905121528 | 52 | 184 | 0.0 | 3.0 | 0.00 | 0.02 | 0.00 | 97 | 1019.0 |
| 20260905120029 | 52 | 181 | 0.0 | 2.0 | 0.00 | 0.02 | 0.00 | 96 | 1018.9 |
| 20260905114532 | 52 | 180 | 0.0 | 0.0 | 0.00 | 0.02 | 0.00 | 96 | 1018.9 |
| 20260905113029 | 52 | 196 | 0.0 | 1.0 | 0.00 | 0.02 | 0.00 | 96 | 1018.8 |
| 20260905111531 | 52 | 202 | 0.0 | 3.0 | 0.00 | 0.02 | 0.00 | 96 | 1018.7 |
| 20260905110028 | 52 | 181 | 0.0 | 2.0 | 0.00 | 0.02 | 0.00 | 96 | 1018.7 |
| 20260905103032 | 52 | 202 | 0.0 | 1.0 | 0.00 | 0.02 | 0.00 | 96 | 1018.6 |
| 20260905101530 | 53 | 195 | 0.0 | 3.0 | 0.00 | 0.02 | 0.00 | 96 | 1018.6 |
| 20260905100030 | 53 | 180 | 0.0 | 0.0 | 0.00 | 0.02 | 0.00 | 96 | 1018.7 |
| 20260905094606 | 53 | 180 | 0.0 | 0.0 | 0.00 | 0.02 | 0.00 | 96 | 1018.7 |
| 20260905093032 | 53 | 199 | 0.0 | 2.0 | 0.00 | 0.02 | 0.00 | 96 | 1018.7 |
| 20260905090031 | 53 | 202 | 0.0 | 2.0 | 0.00 | 0.02 | 0.00 | 96 | 1018.6 |
| 20260905084606 | 54 | 202 | 0.0 | 2.0 | 0.00 | 0.02 | 0.00 | 95 | 1018.6 |
| 20260905083106 | 53 | 194 | 1.0 | 2.0 | 0.00 | 0.02 | 0.00 | 95 | 1018.5 |
| 20260905081530 | 54 | 180 | 2.0 | 4.0 | 0.00 | 0.02 | 0.00 | 95 | 1018.4 |
| 20260905074531 | 54 | 180 | 0.0 | 1.0 | 0.00 | 0.02 | 0.00 | 95 | 1018.2 |
| 20260905073030 | 54 | 187 | 0.0 | 3.0 | 0.01 | 0.02 | 0.00 | 94 | 1018.1 |
| 20260905070052 | 55 | 202 | 0.0 | 3.0 | 0.01 | 0.02 | 0.00 | 94 | 1017.8 |
| 20260905064608 | 55 | 197 | 0.0 | 3.0 | 0.01 | 0.02 | 0.01 | 94 | 1017.6 |
| 20260905060031 | 55 | 170 | 1.0 | 5.0 | 0.00 | 0.01 | 0.01 | 94 | 1017.7 |
| 20260905054531 | 55 | 161 | 2.0 | 6.0 | 0.00 | 0.01 | 0.01 | 94 | 1017.5 |
| 20260905053031 | 54 | 185 | 2.0 | 4.0 | 0.00 | 0.01 | 0.01 | 94 | 1017.4 |
| 20260905051532 | 54 | 202 | 1.0 | 2.0 | 0.00 | 0.01 | 0.01 | 94 | 1017.5 |
| 20260905050148 | 55 | 202 | 2.0 | 3.0 | 0.00 | 0.01 | 0.01 | 93 | 1017.5 |
| 20260905040041 | 55 | 185 | 1.0 | 3.0 | 0.00 | 0.01 | 0.01 | 91 | 1017.1 |
| 20260905034531 | 55 | 180 | 0.0 | 3.0 | 0.00 | 0.01 | 0.01 | 90 | 1017.0 |
| 20260905033036 | 56 | 133 | 1.0 | 3.0 | 0.00 | 0.01 | 0.01 | 90 | 1016.8 |
| 20260905024531 | 57 | 196 | 2.0 | 4.0 | 0.00 | 0.01 | 0.01 | 88 | 1016.5 |
| 20260905014602 | 61 | 341 | 1.0 | 4.0 | 0.00 | 0.01 | 0.01 | 80 | 1016.0 |
| 20260905013032 | 62 | 360 | 0.0 | 0.0 | 0.00 | 0.01 | 0.01 | 76 | 1015.9 |
| 20260905011529 | 62 | 360 | 1.0 | 3.0 | 0.00 | 0.01 | 0.01 | 75 | 1015.8 |
| 20260905010054 | 63 | 39 | 0.0 | 4.0 | 0.00 | 0.01 | 0.01 | 77 | 1015.8 |
| 20260905004531 | 63 | 56 | 3.0 | 6.0 | 0.00 | 0.01 | 0.01 | 79 | 1015.7 |
| 20260905003033 | 62 | 34 | 2.0 | 5.0 | 0.00 | 0.01 | 0.01 | 81 | 1015.6 |